Regional Weather Roundup
Issued by NWS Bismarck, ND

Home | Current Version | Previous Version | Text Only | Print | Product List | Glossary On
Versions: 1 2 3 4 5 6 7 8 9 10 11 12 13 14 15 16 17 18 19 20 21 22 23 24 25 26 27 28 29 30 31 32 33 34 35 36 37 38 39 40 41 42 43 44 45 46 47 48 49 50
000
ASUS43 KBIS 170110
RWRBIS

NWR BROADCAST TEXT
NATIONAL WEATHER SERVICE BISMARCK ND
700 PM CST TUE JAN 16 2018

NOTE: "FAIR" INDICATES FEW OR NO CLOUDS BELOW 12,000 FEET WITH NO
SIGNIFICANT WEATHER AND/OR OBSTRUCTIONS TO VISIBILITY.


CITY           SKY/WX    TMP DP  RH WIND       PRES   REMARKS
WILLISTON      FAIR       5  -4  66 S5        30.20F WCI  -4
MINOT          FAIR      14  -2  49 S16       30.21F WCI  -2
MINOT AFB      CLOUDY    11  -2  55 S10       30.20F WCI  -3
BISMARCK       FAIR       4  -5  66 E3        30.35F
DICKINSON      FAIR      11  -2  56 S17       30.18F WCI  -6
GARRISON         N/A      5  -4  66 S6        30.26F WCI  -6
HETTINGER ARPT CLOUDY     7  -2  66 S7        30.26F WCI  -5
JAMESTOWN      FAIR       7  -3  64 S14       30.38F WCI -10
CARRINGTON     FAIR       7  -4  61 S12       30.36F WCI  -9
HAZEN          FAIR      10  -6  48 S12       30.29F WCI  -4
LINTON           N/A      7  -6  56 SE7       30.39F WCI  -5
MANDAN         FAIR       7  -4  61 S16       30.31F WCI -11
OAKES            N/A      5  -2  72 S13G18    30.46F WCI -12
RUGBY          FAIR       3  -6  66 S8        30.28F WCI -10
STANLEY        FAIR       7  -2  66 S6        30.20F WCI  -3
TIOGA          FAIR       7  -4  61 MISG      30.18F
WATFORD CITY   FAIR       9  -2  61 CALM      30.20F
$$

CITY           SKY/WX    TMP DP  RH WIND       PRES   REMARKS
GRAND FORKS    FAIR       5  -2  72 S17       30.41F WCI -14
GRAND FORKS AF CLOUDY     5  -4  64 S15       30.39F WCI -13
DEVILS LAKE    FAIR       5  -4  66 SW14      30.31F WCI -12
FARGO          MOCLDY     6  -3  66 S14       30.50F WCI -11
CANDO          FAIR       3  -8  60 SW10      30.31F WCI -12
CAVALIER         N/A      7  -6  56 S15       30.31F WCI -11
GRAFTON        FAIR       3  -4  72 S13       30.40F WCI -14
GWINNER          N/A      3  -2  78 SW13      30.47F WCI -14
LANGDON        FAIR       3  -4  72 SW21      30.26F WCI -18
ROLLA          FAIR       5  -8  56 SW18G26   30.20F WCI -15
WALHALLA       FAIR      12  -8  40 SW8       30.28F WCI   1
$$

CITY           SKY/WX    TMP DP  RH WIND       PRES   REMARKS
ABERDEEN       MOCLDY     4  -2  76 S14       30.49F WCI -14
MOBRIDGE       CLOUDY     9  -2  61 S7        30.36F WCI  -2
BUFFALO          N/A      2  -5  72 S10       30.16F WCI -14
RAPID CITY     MOCLDY    18   6  59 SE8       30.25F WCI   8
GLASGOW        CLOUDY     6  -1  73 SE12      30.10F WCI  -9
SIDNEY         CLOUDY     1  -6  72 SW10      30.21F WCI -15
WOLF POINT     CLOUDY     1  -7  68 NE3       30.16F
GLENDIVE       CLOUDY     6  -2  69 S9        30.19F WCI  -8
MILES CITY     CLOUDY    -4  -9  79 S9        30.17F WCI -20
BAKER          CLOUDY     5  -3  69 SE8       30.18F WCI  -8
$$

CITY           SKY/WX    TMP DP  RH WIND       PRES   REMARKS
BILLINGS       CLOUDY    29  10  45 SW15      30.13R WCI  18
GREAT FALLS    PTCLDY    38  25  59 SW17G28   30.09R
REGINA         CLEAR      7   0  72 SE12      30.03F WCI  -9
ESTEVAN        PTCLDY    10  -2  56 S13       30.14F WCI  -5
$$





USA.gov is the U.S. government's official web portal to all federal, state and local government web resources and services.